Weather History for KMDH - February, 2012

Change the Weather History Date:

Tuesday, February 28, 2012

  Actual Average Record
Temperature  
Mean Temperature 49 °F -  
Max Temperature 66 °F 49 °F - (-1)
Min Temperature 32 °F 29 °F - (-1)
Degree Days  
Heating Degree Days 16    
Moisture  
Dew Point 40 °F    
Average Humidity 64    
Maximum Humidity 87    
Minimum Humidity 43    
Precipitation  
Precipitation 0.00 in - - ()
Sea Level Pressure  
Sea Level Pressure 30.12 in    
Wind  
Wind Speed 6 mph (SE)    
Max Wind Speed 21 mph    
Max Gust Speed 30 mph    
Visibility 10 miles    
Events Thunderstorm    
Averages and records for this station are not official NWS values.
T = Trace of Precipitation, MM = Missing Value Source: NWS Daily Summary

Daily Weather History Graph

Daily Weather History Graph

Search for Another Location

Airport or City:

Trip Planner

Search our weather history database for the weather conditions in past years. The results will help you decide how hot, cold, wet, or windy it might be!

Date:

Astronomy

Feb. 28, 2012 Rise Set
Actual Time 6:30 AM CST 5:49 PM CST
Civil Twilight 6:04 AM CST 6:15 PM CST
Nautical Twilight 5:33 AM CST 6:45 PM CST
Astronomical Twilight 5:03 AM CST 7:16 PM CST
Moon 9:45 AM CST (2/28) No Moon Set
Length of Visible Light 12h 11m
Length of Day
11h 18m
Waxing Crescent, 38% of the Moon is Illuminated
Feb 28
Waxing Crescent
Feb 29
First Quarter
Mar 8
Full
Mar 14
Last Quarter
Mar 22
New

Hourly Weather History & Observations

Time (CST) Temp. Windchill Dew Point Humidity Pressure Visibility Wind Dir Wind Speed Gust Speed Precip Events Conditions
12:52 AM 37.9 °F 35.5 °F 25.0 °F 60% 30.40 in 10.0 mi East 3.5 mph - N/A   Clear
1:52 AM 34.0 °F - 26.1 °F 73% 30.40 in 10.0 mi Calm Calm - N/A   Clear
2:52 AM 32.0 °F 28.7 °F 25.0 °F 75% 30.40 in 10.0 mi NNE 3.5 mph - N/A   Clear
3:52 AM 32.0 °F - 25.0 °F 75% 30.39 in 10.0 mi Calm Calm - N/A   Clear
4:52 AM 32.0 °F - 28.0 °F 85% 30.39 in 10.0 mi Calm Calm - N/A   Scattered Clouds
5:52 AM 32.0 °F 27.5 °F 25.0 °F 75% 30.37 in 10.0 mi ESE 4.6 mph - N/A   Clear
6:52 AM 34.0 °F - 26.1 °F 73% 30.36 in 10.0 mi Calm Calm - N/A   Mostly Cloudy
7:52 AM 37.0 °F 33.3 °F 27.0 °F 67% 30.35 in 10.0 mi East 4.6 mph - N/A   Overcast
8:52 AM 41.0 °F 36.4 °F 28.9 °F 62% 30.31 in 10.0 mi East 6.9 mph - N/A   Overcast
9:52 AM 44.1 °F 40.8 °F 28.0 °F 53% 30.29 in 10.0 mi ESE 5.8 mph - N/A   Overcast
10:52 AM 48.0 °F - 30.0 °F 50% 30.27 in 10.0 mi East 4.6 mph - N/A   Overcast
11:52 AM 51.1 °F - 32.0 °F 48% 30.25 in 10.0 mi Calm Calm - N/A   Overcast
12:52 PM 54.0 °F - 33.1 °F 45% 30.20 in 10.0 mi Calm Calm - N/A   Overcast
1:52 PM 59.0 °F - 37.0 °F 44% 30.15 in 10.0 mi ESE 5.8 mph - N/A   Overcast
2:52 PM 63.0 °F - 39.9 °F 43% 30.10 in 10.0 mi SE 10.4 mph - N/A   Partly Cloudy
3:52 PM 64.0 °F - 43.0 °F 46% 30.07 in 10.0 mi SSE 10.4 mph - N/A   Overcast
4:52 PM 64.0 °F - 44.1 °F 48% 30.04 in 10.0 mi SSE 5.8 mph - N/A   Overcast
5:52 PM 63.0 °F - 45.0 °F 52% 30.01 in 10.0 mi SE 9.2 mph - N/A   Overcast
6:52 PM 61.0 °F - 46.0 °F 58% 29.96 in 10.0 mi SE 9.2 mph - N/A   Overcast
7:52 PM 63.0 °F - 48.9 °F 60% 29.92 in 10.0 mi SE 13.8 mph - N/A   Mostly Cloudy
8:46 PM 64.4 °F - 51.8 °F 64% 29.91 in 10.0 mi South 19.6 mph 25.3 mph N/A   Overcast
8:47 PM 64.4 °F - 51.8 °F 64% 29.91 in 10.0 mi South 17.3 mph 25.3 mph N/A   Overcast
8:52 PM 66.0 °F - 51.1 °F 59% 29.92 in 10.0 mi South 18.4 mph 25.3 mph N/A Thunderstorm Overcast
9:31 PM 62.6 °F - 53.6 °F 72% 29.84 in 10.0 mi SSE 19.6 mph 28.8 mph 0.00 in   Overcast
9:52 PM 63.0 °F - 54.0 °F 72% 29.85 in 10.0 mi South 20.7 mph 28.8 mph 0.00 in   Mostly Cloudy
10:28 PM 62.6 °F - 57.2 °F 82% 29.85 in 10.0 mi South 19.6 mph 29.9 mph 0.00 in   Overcast
10:52 PM 62.1 °F - 57.0 °F 84% 29.85 in 10.0 mi SSW 17.3 mph - 0.00 in   Overcast
11:29 PM 62.6 °F - 57.2 °F 82% 29.80 in 10.0 mi South 19.6 mph - N/A   Overcast
11:52 PM 63.0 °F - 59.0 °F 87% 29.79 in 10.0 mi South 17.3 mph 24.2 mph N/A   Overcast